Weather in Verhny Paren

Russia / Magadan District     62°39′12″N   162°22′54″E
temp.,
°C
wind,
m/s
gust,
m/s
humid.,
%
clouds,
%
prec.,
mm/h
press.,
hPa
HPBL,
m
17 august, wed
wed1723:00+9ene101992100 5.3 1000947
02:00+8e91790100 4.3 1001805
05:00+8e81587100 4.8 1003776
08:00+8e61388100 0.0 1005775
11:00+8e61285100 0.1 1005800
14:00+8e51082100 0.0 1005814
17:00+7e4982100 0.1 1006613
20:00+7e4987100 0.1 1007524
18 august, thu
thu1823:00+6ene3789100 0.3 1007441
02:00+6ne2794100 1.3 1006311
05:00+6ne2793100 2.7 1006246
08:00+7ne2589100 0.3 1006235
11:00+7ne2587100 0.3 1006303
14:00+8ene2683100 0.1 1007467
17:00+8ne1186100 0.1 100750
20:00+7nne2287100 0.0 100824
19 august, fri
fri1923:00+5n2290100 0.0 100917
02:00+4nne228786 0.0 100911
05:00+5nne228198 0.0 101014
08:00+8ne1173100 0.0 1011130
11:00+10e2462100 0.0 1011593
14:00+13se445139 0.0 10111265
17:00+12se33538 0.0 10111030
20:00+7sse11746 0.0 101310
20 august, sat
sat2023:00+6ne227555 0.0 101310
02:00+7ene2269100 0.0 101324
05:00+7ene2375100 0.0 101368
08:00+7e3994100 1.5 1014398
11:00+7e3996100 6.3 1014451
14:00+7e3997100 0.3 1014508
17:00+7ene2896100 0.8 1014500
20:00+7ne2396100 0.2 1014148
21 august, sun
sun2123:00+7ne2395100 0.3 1014117
02:00+7ne2295100 0.1 101470
05:00+8ne2294100 0.1 101462
08:00+9ne2391100 0.1 1014175
11:00+10ne2388100 0.2 1013233
14:00+10ne1292100 0.4 1013147
17:00+10ene2793100 0.6 1012376
20:00+9ene3894100 0.5 1013320